Location: Castro Valley
(37.6941°N, 122.0863°W)
Time: 13:05:33
(UTC+00:00)

SL-16 R/B - Pass Details

Date: 19 May 2025
Orbit: 985 x 1006 km, 99.7° (Epoch: 16 June)

Event Time Altitude Azimuth Distance (km) Brightness Sun altitude
Rises 12:23:03 0° 193° (SSW) 3,678 5.1 -6.4°
Reaches altitude 10° 12:25:50 10° 204° (SSW) 2,733 4.4 -5.9°
Maximum altitude 12:31:07 30° 263° (W) 1,690 3.3 -5.0°
Drops below altitude 10° 12:36:26 10° 323° (NW) 2,750 4.8 -4.1°
Sets 12:39:15 0° 334° (NNW) 3,705 5.6 -3.6°
